#Datum;Uhrzeit;WR;Pac;DaySum;Status;WR;Pac;DaySum;Status;Pdc1;Udc;Temp;WR;Pac;DaySum;Status;Pdc1;Udc;Temp;WR;Pac;DaySum;Status;Pdc1;Udc;Temp;WR;Pac;DaySum;Status;Pdc1;Pdc2;Udc1;Udc2;Temp;WR;Pac;DaySum;Status;Pdc1;Pdc2;Udc1;Udc2;Temp;WR;Pac;DaySum;Status;Pdc1;Udc;Temp;WR;Pac;DaySum;Status;Pdc1;Udc;Temp;WR;Pac;DaySum;Status;Pdc1;Udc;Temp
28.12.17;23:55:00;1;240;15064;0;2;0;1152;0;0;0;0;3;0;1256;0;0;0;0;4;0;289;0;0;0;0;5;0;1858;0;0;0;0;0;0;6;0;1479;0;0;0;0;0;0;7;0;291;0;0;0;0;8;0;1617;0;0;0;0;9;0;690;0;0;0;0
28.12.17;23:50:00;1;304;15043;0;2;0;1152;0;0;0;0;3;0;1256;0;0;0;0;4;0;289;0;0;0;0;5;0;1858;0;0;0;0;0;0;6;0;1479;0;0;0;0;0;0;7;0;291;0;0;0;0;8;0;1617;0;0;0;0;9;0;690;0;0;0;0
28.12.17;23:45:00;1;511;15018;0;2;0;1152;0;0;0;0;3;0;1256;0;0;0;0;4;0;289;0;0;0;0;5;0;1858;0;0;0;0;0;0;6;0;1479;0;0;0;0;0;0;7;0;291;0;0;0;0;8;0;1617;0;0;0;0;9;0;690;0;0;0;0
28.12.17;23:40:00;1;669;14968;0;2;0;1152;0;0;0;0;3;0;1256;0;0;0;0;4;0;289;0;0;0;0;5;0;1858;0;0;0;0;0;0;6;0;1479;0;0;0;0;0;0;7;0;291;0;0;0;0;8;0;1617;0;0;0;0;9;0;690;0;0;0;0
28.12.17;23:35:00;1;307;14936;0;2;0;1152;0;0;0;0;3;0;1256;0;0;0;0;4;0;289;0;0;0;0;5;0;1858;0;0;0;0;0;0;6;0;1479;0;0;0;0;0;0;7;0;291;0;0;0;0;8;0;1617;0;0;0;0;9;0;690;0;0;0;0
28.12.17;23:30:00;1;307;14911;0;2;0;1152;0;0;0;0;3;0;1256;0;0;0;0;4;0;289;0;0;0;0;5;0;1858;0;0;0;0;0;0;6;0;1479;0;0;0;0;0;0;7;0;291;0;0;0;0;8;0;1617;0;0;0;0;9;0;690;0;0;0;0
28.12.17;23:25:00;1;750;14885;0;2;0;1152;0;0;0;0;3;0;1256;0;0;0;0;4;0;289;0;0;0;0;5;0;1858;0;0;0;0;0;0;6;0;1479;0;0;0;0;0;0;7;0;291;0;0;0;0;8;0;1617;0;0;0;0;9;0;690;0;0;0;0
28.12.17;23:20:00;1;271;14829;0;2;0;1152;0;0;0;0;3;0;1256;0;0;0;0;4;0;289;0;0;0;0;5;0;1858;0;0;0;0;0;0;6;0;1479;0;0;0;0;0;0;7;0;291;0;0;0;0;8;0;1617;0;0;0;0;9;0;690;0;0;0;0
28.12.17;23:15:00;1;283;14806;0;2;0;1152;0;0;0;0;3;0;1256;0;0;0;0;4;0;289;0;0;0;0;5;0;1858;0;0;0;0;0;0;6;0;1479;0;0;0;0;0;0;7;0;291;0;0;0;0;8;0;1617;0;0;0;0;9;0;690;0;0;0;0
28.12.17;23:10:00;1;653;14782;0;2;0;1152;0;0;0;0;3;0;1256;0;0;0;0;4;0;289;0;0;0;0;5;0;1858;0;0;0;0;0;0;6;0;1479;0;0;0;0;0;0;7;0;291;0;0;0;0;8;0;1617;0;0;0;0;9;0;690;0;0;0;0
28.12.17;23:05:00;1;342;14728;0;2;0;1152;0;0;0;0;3;0;1256;0;0;0;0;4;0;289;0;0;0;0;5;0;1858;0;0;0;0;0;0;6;0;1479;0;0;0;0;0;0;7;0;291;0;0;0;0;8;0;1617;0;0;0;0;9;0;690;0;0;0;0
28.12.17;23:00:00;1;2025;14699;0;2;0;1152;0;0;0;0;3;0;1256;0;0;0;0;4;0;289;0;0;0;0;5;0;1858;0;0;0;0;0;0;6;0;1479;0;0;0;0;0;0;7;0;291;0;0;0;0;8;0;1617;0;0;0;0;9;0;690;0;0;0;0
28.12.17;22:55:00;1;1808;14528;0;2;0;1152;0;0;0;0;3;0;1256;0;0;0;0;4;0;289;0;0;0;0;5;0;1858;2;0;0;0;0;0;6;0;1479;2;0;0;0;0;0;7;0;291;0;0;0;0;8;0;1617;0;0;0;0;9;0;690;0;0;0;0
28.12.17;22:50:00;1;290;14406;0;2;0;1152;0;0;0;0;3;0;1256;0;0;0;0;4;0;289;0;0;0;0;5;0;1858;2;0;0;0;0;0;6;0;1479;2;0;0;0;0;0;7;0;291;0;0;0;0;8;0;1617;0;0;0;0;9;0;690;0;0;0;0
28.12.17;22:45:00;1;277;14382;0;2;0;1152;0;0;0;0;3;0;1256;0;0;0;0;4;0;289;0;0;0;0;5;0;1858;2;0;0;0;0;0;6;0;1479;2;0;0;0;0;0;7;0;291;0;0;0;0;8;0;1617;0;0;0;0;9;0;690;0;0;0;0
28.12.17;22:40:00;1;482;14359;0;2;0;1152;0;0;0;0;3;0;1256;0;0;0;0;4;0;289;0;0;0;0;5;0;1858;2;0;0;0;0;0;6;0;1479;2;0;0;0;0;0;7;0;291;0;0;0;0;8;0;1617;0;0;0;0;9;0;690;0;0;0;0
28.12.17;22:35:00;1;481;14309;0;2;0;1152;0;0;0;0;3;0;1256;0;0;0;0;4;0;289;0;0;0;0;5;0;1858;2;0;0;0;0;0;6;0;1479;2;0;0;0;0;0;7;0;291;0;0;0;0;8;0;1617;0;0;0;0;9;0;690;0;0;0;0
28.12.17;22:30:00;1;283;14283;0;2;0;1152;0;0;0;0;3;0;1256;0;0;0;0;4;0;289;0;0;0;0;5;0;1858;2;0;0;0;0;0;6;0;1479;2;0;0;0;0;0;7;0;291;0;0;0;0;8;0;1617;0;0;0;0;9;0;690;0;0;0;0
28.12.17;22:25:00;1;315;14258;0;2;0;1152;0;0;0;0;3;0;1256;0;0;0;0;4;0;289;0;0;0;0;5;0;1858;2;0;0;0;0;0;6;0;1479;2;0;0;0;0;0;7;0;291;0;0;0;0;8;0;1617;0;0;0;0;9;0;690;0;0;0;0
28.12.17;22:20:00;1;790;14232;0;2;0;1152;0;0;0;0;3;0;1256;0;0;0;0;4;0;289;0;0;0;0;5;0;1858;2;0;0;0;0;0;6;0;1479;2;0;0;0;0;0;7;0;291;0;0;0;0;8;0;1617;0;0;0;0;9;0;690;0;0;0;0
28.12.17;22:15:00;1;301;14177;0;2;0;1152;0;0;0;0;3;0;1256;0;0;0;0;4;0;289;0;0;0;0;5;0;1858;2;0;0;0;0;0;6;0;1479;2;0;0;0;0;0;7;0;291;0;0;0;0;8;0;1617;0;0;0;0;9;0;690;0;0;0;0
28.12.17;22:10:00;1;257;14152;0;2;0;1152;0;0;0;0;3;0;1256;0;0;0;0;4;0;289;0;0;0;0;5;0;1858;2;0;0;0;0;0;6;0;1479;2;0;0;0;0;0;7;0;291;0;0;0;0;8;0;1617;0;0;0;0;9;0;690;0;0;0;0
28.12.17;22:05:00;1;760;14130;0;2;0;1152;0;0;0;0;3;0;1256;0;0;0;0;4;0;289;0;0;0;0;5;0;1858;2;0;0;0;0;0;6;0;1479;2;0;0;0;0;0;7;0;291;0;0;0;0;8;0;1617;0;0;0;0;9;0;690;0;0;0;0
28.12.17;22:00:00;1;327;14075;0;2;0;1152;0;0;0;0;3;0;1256;0;0;0;0;4;0;289;0;0;0;0;5;0;1858;2;0;0;0;0;0;6;0;1479;2;0;0;0;0;0;7;0;291;0;0;0;0;8;0;1617;0;0;0;0;9;0;690;0;0;0;0
28.12.17;21:55:00;1;324;14048;0;2;0;1152;0;0;0;0;3;0;1256;0;0;0;0;4;0;289;0;0;0;0;5;0;1858;2;0;0;0;0;0;6;0;1479;2;0;0;0;0;0;7;0;291;0;0;0;0;8;0;1617;0;0;0;0;9;0;690;0;0;0;0
28.12.17;21:50:00;1;855;14020;0;2;0;1152;0;0;0;0;3;0;1256;0;0;0;0;4;0;289;0;0;0;0;5;0;1858;2;0;0;0;0;0;6;0;1479;2;0;0;0;0;0;7;0;291;0;0;0;0;8;0;1617;0;0;0;0;9;0;690;0;0;0;0
28.12.17;21:45:00;1;326;13963;0;2;0;1152;0;0;0;0;3;0;1256;0;0;0;0;4;0;289;0;0;0;0;5;0;1858;2;0;0;0;0;0;6;0;1479;2;0;0;0;0;0;7;0;291;0;0;0;0;8;0;1617;0;0;0;0;9;0;690;0;0;0;0
28.12.17;21:40:00;1;329;13936;0;2;0;1152;0;0;0;0;3;0;1256;0;0;0;0;4;0;289;0;0;0;0;5;0;1858;2;0;0;0;0;0;6;0;1479;2;0;0;0;0;0;7;0;291;0;0;0;0;8;0;1617;0;0;0;0;9;0;690;0;0;0;0
28.12.17;21:35:00;1;332;13908;0;2;0;1152;0;0;0;0;3;0;1256;0;0;0;0;4;0;289;0;0;0;0;5;0;1858;2;0;0;0;0;0;6;0;1479;2;0;0;0;0;0;7;0;291;0;0;0;0;8;0;1617;0;0;0;0;9;0;690;0;0;0;0
28.12.17;21:30:00;1;509;13880;0;2;0;1152;0;0;0;0;3;0;1256;0;0;0;0;4;0;289;0;0;0;0;5;0;1858;2;0;0;0;0;0;6;0;1479;2;0;0;0;0;0;7;0;291;0;0;0;0;8;0;1617;0;0;0;0;9;0;690;0;0;0;0
28.12.17;21:25:00;1;308;13823;0;2;0;1152;0;0;0;0;3;0;1256;0;0;0;0;4;0;289;0;0;0;0;5;0;1858;2;0;0;0;0;0;6;0;1479;2;0;0;0;0;0;7;0;291;0;0;0;0;8;0;1617;0;0;0;0;9;0;690;0;0;0;0
28.12.17;21:20:00;1;302;13797;0;2;0;1152;0;0;0;0;3;0;1256;0;0;0;0;4;0;289;0;0;0;0;5;0;1858;2;0;0;0;0;0;6;0;1479;2;0;0;0;0;0;7;0;291;0;0;0;0;8;0;1617;0;0;0;0;9;0;690;0;0;0;0
28.12.17;21:15:00;1;467;13772;0;2;0;1152;0;0;0;0;3;0;1256;0;0;0;0;4;0;289;0;0;0;0;5;0;1858;2;0;0;0;0;0;6;0;1479;2;0;0;0;0;0;7;0;291;0;0;0;0;8;0;1617;0;0;0;0;9;0;690;0;0;0;0
28.12.17;21:10:00;1;262;13720;0;2;0;1152;0;0;0;0;3;0;1256;0;0;0;0;4;0;289;0;0;0;0;5;0;1858;2;0;0;0;0;0;6;0;1479;2;0;0;0;0;0;7;0;291;0;0;0;0;8;0;1617;0;0;0;0;9;0;690;0;0;0;0
28.12.17;21:05:00;1;262;13698;0;2;0;1152;0;0;0;0;3;0;1256;0;0;0;0;4;0;289;0;0;0;0;5;0;1858;2;0;0;0;0;0;6;0;1479;2;0;0;0;0;0;7;0;291;0;0;0;0;8;0;1617;0;0;0;0;9;0;690;0;0;0;0
28.12.17;21:00:00;1;264;13676;0;2;0;1152;0;0;0;0;3;0;1256;0;0;0;0;4;0;289;0;0;0;0;5;0;1858;2;0;0;0;0;0;6;0;1479;2;0;0;0;0;0;7;0;291;0;0;0;0;8;0;1617;0;0;0;0;9;0;690;0;0;0;0
28.12.17;20:55:00;1;465;13636;0;2;0;1152;0;0;0;0;3;0;1256;0;0;0;0;4;0;289;0;0;0;0;5;0;1858;2;0;0;0;0;0;6;0;1479;2;0;0;0;0;0;7;0;291;0;0;0;0;8;0;1617;0;0;0;0;9;0;690;0;0;0;0
28.12.17;20:50:00;1;631;13602;0;2;0;1152;0;0;0;0;3;0;1256;0;0;0;0;4;0;289;0;0;0;0;5;0;1858;2;0;0;0;0;0;6;0;1479;2;0;0;0;0;0;7;0;291;0;0;0;0;8;0;1617;0;0;0;0;9;0;690;0;0;0;0
28.12.17;20:45:00;1;2840;13522;0;2;0;1152;0;0;0;0;3;0;1256;0;0;0;0;4;0;289;0;0;0;0;5;0;1858;2;0;0;0;0;0;6;0;1479;2;0;0;0;0;0;7;0;291;0;0;0;0;8;0;1617;0;0;0;0;9;0;690;0;0;0;0
28.12.17;20:40:00;1;801;13345;0;2;0;1152;0;0;0;0;3;0;1256;0;0;0;0;4;0;289;0;0;0;0;5;0;1858;2;0;0;0;0;0;6;0;1479;2;0;0;0;0;0;7;0;291;0;0;0;0;8;0;1617;0;0;0;0;9;0;690;0;0;0;0
28.12.17;20:35:00;1;302;13292;0;2;0;1152;0;0;0;0;3;0;1256;0;0;0;0;4;0;289;0;0;0;0;5;0;1858;2;0;0;0;0;0;6;0;1479;2;0;0;0;0;0;7;0;291;0;0;0;0;8;0;1617;0;0;0;0;9;0;690;0;0;0;0
28.12.17;20:30:00;1;307;13267;0;2;0;1152;0;0;0;0;3;0;1256;0;0;0;0;4;0;289;0;0;0;0;5;0;1858;2;0;0;0;0;0;6;0;1479;2;0;0;0;0;0;7;0;291;0;0;0;0;8;0;1617;0;0;0;0;9;0;690;0;0;0;0
28.12.17;20:25:00;1;502;13241;0;2;0;1152;0;0;0;0;3;0;1256;0;0;0;0;4;0;289;0;0;0;0;5;0;1858;2;0;0;0;0;0;6;0;1479;2;0;0;0;0;0;7;0;291;0;0;0;0;8;0;1617;0;0;0;0;9;0;690;0;0;0;0
28.12.17;20:20:00;1;315;13185;0;2;0;1152;0;0;0;0;3;0;1256;0;0;0;0;4;0;289;0;0;0;0;5;0;1858;2;0;0;0;0;0;6;0;1479;2;0;0;0;0;0;7;0;291;0;0;0;0;8;0;1617;0;0;0;0;9;0;690;0;0;0;0
28.12.17;20:15:00;1;397;13158;0;2;0;1152;0;0;0;0;3;0;1256;0;0;0;0;4;0;289;0;0;0;0;5;0;1858;2;0;0;0;0;0;6;0;1479;2;0;0;0;0;0;7;0;291;0;0;0;0;8;0;1617;0;0;0;0;9;0;690;0;0;0;0
28.12.17;20:10:00;1;408;13125;0;2;0;1152;0;0;0;0;3;0;1256;0;0;0;0;4;0;289;0;0;0;0;5;0;1858;2;0;0;0;0;0;6;0;1479;2;0;0;0;0;0;7;0;291;0;0;0;0;8;0;1617;0;0;0;0;9;0;690;0;0;0;0
28.12.17;20:05:00;1;661;13076;0;2;0;1152;0;0;0;0;3;0;1256;0;0;0;0;4;0;289;0;0;0;0;5;0;1858;2;0;0;0;0;0;6;0;1479;2;0;0;0;0;0;7;0;291;0;0;0;0;8;0;1617;0;0;0;0;9;0;690;0;0;0;0
28.12.17;20:00:00;1;544;13020;0;2;0;1152;0;0;0;0;3;0;1256;0;0;0;0;4;0;289;0;0;0;0;5;0;1858;2;0;0;0;0;0;6;0;1479;2;0;0;0;0;0;7;0;291;0;0;0;0;8;0;1617;0;0;0;0;9;0;690;0;0;0;0
28.12.17;19:55:00;1;546;12975;0;2;0;1152;0;0;0;0;3;0;1256;0;0;0;0;4;0;289;0;0;0;0;5;0;1858;2;0;0;0;0;0;6;0;1479;2;0;0;0;0;0;7;0;291;0;0;0;0;8;0;1617;0;0;0;0;9;0;690;0;0;0;0
28.12.17;19:50:00;1;940;12930;0;2;0;1152;0;0;0;0;3;0;1256;0;0;0;0;4;0;289;0;0;0;0;5;0;1858;2;0;0;0;0;0;6;0;1479;2;0;0;0;0;0;7;0;291;0;0;0;0;8;0;1617;0;0;0;0;9;0;690;0;0;0;0
28.12.17;19:45:00;1;561;12855;0;2;0;1152;0;0;0;0;3;0;1256;0;0;0;0;4;0;289;0;0;0;0;5;0;1858;2;0;0;0;0;0;6;0;1479;2;0;0;0;0;0;7;0;291;0;0;0;0;8;0;1617;0;0;0;0;9;0;690;0;0;0;0
28.12.17;19:40:00;1;519;12809;0;2;0;1152;0;0;0;0;3;0;1256;0;0;0;0;4;0;289;0;0;0;0;5;0;1858;2;0;0;0;0;0;6;0;1479;2;0;0;0;0;0;7;0;291;0;0;0;0;8;0;1617;0;0;0;0;9;0;690;0;0;0;0
28.12.17;19:35:00;1;763;12766;0;2;0;1152;0;0;0;0;3;0;1256;0;0;0;0;4;0;289;0;0;0;0;5;0;1858;2;0;0;0;0;0;6;0;1479;2;0;0;0;0;0;7;0;291;0;0;0;0;8;0;1617;0;0;0;0;9;0;690;0;0;0;0
28.12.17;19:30:00;1;593;12692;0;2;0;1152;0;0;0;0;3;0;1256;0;0;0;0;4;0;289;0;0;0;0;5;0;1858;2;0;0;0;0;0;6;0;1479;2;0;0;0;0;0;7;0;291;0;0;0;0;8;0;1617;0;0;0;0;9;0;690;0;0;0;0
28.12.17;19:25:00;1;585;12642;0;2;0;1152;0;0;0;0;3;0;1256;0;0;0;0;4;0;289;0;0;0;0;5;0;1858;2;0;0;0;0;0;6;0;1479;2;0;0;0;0;0;7;0;291;0;0;0;0;8;0;1617;0;0;0;0;9;0;690;0;0;0;0
28.12.17;19:20:00;1;670;12593;0;2;0;1152;0;0;0;0;3;0;1256;0;0;0;0;4;0;289;0;0;0;0;5;0;1858;2;0;0;0;0;0;6;0;1479;2;0;0;0;0;0;7;0;291;0;0;0;0;8;0;1617;0;0;0;0;9;0;690;0;0;0;0
28.12.17;19:15:00;1;929;12540;0;2;0;1152;0;0;0;0;3;0;1256;0;0;0;0;4;0;289;0;0;0;0;5;0;1858;2;0;0;0;0;0;6;0;1479;2;0;0;0;0;0;7;0;291;0;0;0;0;8;0;1617;0;0;0;0;9;0;690;0;0;0;0
28.12.17;19:10:00;1;568;12468;0;2;0;1152;0;0;0;0;3;0;1256;0;0;0;0;4;0;289;0;0;0;0;5;0;1858;2;0;0;0;0;0;6;0;1479;2;0;0;0;0;0;7;0;291;0;0;0;0;8;0;1617;0;0;0;0;9;0;690;0;0;0;0
28.12.17;19:05:00;1;499;12418;0;2;0;1152;0;0;0;0;3;0;1256;0;0;0;0;4;0;289;0;0;0;0;5;0;1858;2;0;0;0;0;0;6;0;1479;2;0;0;0;0;0;7;0;291;0;0;0;0;8;0;1617;0;0;0;0;9;0;690;0;0;0;0
28.12.17;19:00:00;1;967;12368;0;2;0;1152;0;0;0;0;3;0;1256;0;0;0;0;4;0;289;0;0;0;0;5;0;1858;2;0;0;0;0;0;6;0;1479;2;0;0;0;0;0;7;0;291;0;0;0;0;8;0;1617;0;0;0;0;9;0;690;0;0;0;0
28.12.17;18:55:00;1;648;12286;0;2;0;1152;0;0;0;0;3;0;1256;0;0;0;0;4;0;289;0;0;0;0;5;0;1858;2;0;0;0;0;0;6;0;1479;2;0;0;0;0;0;7;0;291;0;0;0;0;8;0;1617;0;0;0;0;9;0;690;0;0;0;0
28.12.17;18:50:00;1;640;12231;0;2;0;1152;0;0;0;0;3;0;1256;0;0;0;0;4;0;289;0;0;0;0;5;0;1858;2;0;0;0;0;0;6;0;1479;2;0;0;0;0;0;7;0;291;0;0;0;0;8;0;1617;0;0;0;0;9;0;690;0;0;0;0
28.12.17;18:45:00;1;2164;12172;0;2;0;1152;0;0;0;0;3;0;1256;0;0;0;0;4;0;289;0;0;0;0;5;0;1858;2;0;0;0;0;0;6;0;1479;2;0;0;0;0;0;7;0;291;0;0;0;0;8;0;1617;0;0;0;0;9;0;690;0;0;0;0
28.12.17;18:40:00;1;2653;11979;0;2;0;1152;0;0;0;0;3;0;1256;0;0;0;0;4;0;289;0;0;0;0;5;0;1858;2;0;0;0;0;0;6;0;1479;2;0;0;0;0;0;7;0;291;0;0;0;0;8;0;1617;0;0;0;0;9;0;690;0;0;0;0
28.12.17;18:35:00;1;940;11769;0;2;0;1152;0;0;0;0;3;0;1256;0;0;0;0;4;0;289;0;0;0;0;5;0;1858;2;0;0;0;0;0;6;0;1479;2;0;0;0;0;0;7;0;291;0;0;0;0;8;0;1617;0;0;0;0;9;0;690;0;0;0;0
28.12.17;18:30:00;1;2730;11691;0;2;0;1152;0;0;0;0;3;0;1256;0;0;0;0;4;0;289;0;0;0;0;5;0;1858;2;0;0;0;0;0;6;0;1479;2;0;0;0;0;0;7;0;291;0;0;0;0;8;0;1617;0;0;0;0;9;0;690;0;0;0;0
28.12.17;18:25:00;1;2106;11469;0;2;0;1152;0;0;0;0;3;0;1256;0;0;0;0;4;0;289;0;0;0;0;5;0;1858;2;0;0;0;0;0;6;0;1479;2;0;0;0;0;0;7;0;291;0;0;0;0;8;0;1617;0;0;0;0;9;0;690;0;0;0;0
28.12.17;18:20:00;1;1924;11344;0;2;0;1152;0;0;0;0;3;0;1256;0;0;0;0;4;0;289;0;0;0;0;5;0;1858;2;0;0;0;0;0;6;0;1479;2;0;0;0;0;0;7;0;291;0;0;0;0;8;0;1617;0;0;0;0;9;0;690;0;0;0;0
28.12.17;18:15:00;1;1907;11195;0;2;0;1152;0;0;0;0;3;0;1256;0;0;0;0;4;0;289;0;0;0;0;5;0;1858;2;0;0;0;0;0;6;0;1479;2;0;0;0;0;0;7;0;291;0;0;0;0;8;0;1617;0;0;0;0;9;0;690;0;0;0;0
28.12.17;18:10:00;1;2093;11047;0;2;0;1152;0;0;0;0;3;0;1256;0;0;0;0;4;0;289;0;0;0;0;5;0;1858;2;0;0;0;0;0;6;0;1479;2;0;0;0;0;0;7;0;291;0;0;0;0;8;0;1617;0;0;0;0;9;0;690;0;0;0;0
28.12.17;18:05:00;1;2607;10860;0;2;0;1152;0;0;0;0;3;0;1256;0;0;0;0;4;0;289;0;0;0;0;5;0;1858;2;0;0;0;0;0;6;0;1479;2;0;0;0;0;0;7;0;291;0;0;0;0;8;0;1617;0;0;0;0;9;0;690;0;0;0;0
28.12.17;18:00:00;1;2663;10695;0;2;0;1152;0;0;0;0;3;0;1256;0;0;0;0;4;0;289;0;0;0;0;5;0;1858;2;0;0;0;0;0;6;0;1479;2;0;0;0;0;0;7;0;291;0;0;0;0;8;0;1617;0;0;0;0;9;0;690;0;0;0;0
28.12.17;17:55:00;1;1961;10533;0;2;0;1152;0;0;0;0;3;0;1256;0;0;0;0;4;0;289;0;0;0;0;5;0;1858;2;0;0;0;0;0;6;0;1479;2;0;0;0;0;0;7;0;291;0;0;0;0;8;0;1617;0;0;0;0;9;0;690;0;0;0;0
28.12.17;17:50:00;1;2122;10289;0;2;0;1152;0;0;0;0;3;0;1256;0;0;0;0;4;0;289;0;0;0;0;5;0;1858;2;0;0;0;0;0;6;0;1479;2;0;0;0;0;0;7;0;291;0;0;0;0;8;0;1617;0;0;0;0;9;0;690;0;0;0;0
28.12.17;17:45:00;1;2627;10076;0;2;0;1152;0;0;0;0;3;0;1256;0;0;0;0;4;0;289;0;0;0;0;5;0;1858;2;0;0;0;0;0;6;0;1479;2;0;0;0;0;0;7;0;291;0;0;0;0;8;0;1617;0;0;0;0;9;0;690;0;0;0;0
28.12.17;17:40:00;1;3191;9884;0;2;0;1152;0;0;0;0;3;0;1256;0;0;0;0;4;0;289;0;0;0;0;5;0;1858;2;0;0;0;0;0;6;0;1479;2;0;0;0;0;0;7;0;291;0;0;0;0;8;0;1617;0;0;0;0;9;0;690;0;0;0;0
28.12.17;17:35:00;1;3147;9594;0;2;0;1152;0;0;0;0;3;0;1256;0;0;0;0;4;0;289;0;0;0;0;5;0;1858;2;0;0;0;0;0;6;0;1479;2;0;0;0;0;0;7;0;291;0;0;0;0;8;0;1617;0;0;0;0;9;0;690;0;0;0;0
28.12.17;17:30:00;1;603;9370;0;2;0;1152;0;0;0;0;3;0;1256;0;0;0;0;4;0;289;0;0;0;0;5;0;1858;2;0;0;0;0;0;6;0;1479;2;0;0;0;0;0;7;0;291;0;0;0;0;8;0;1617;0;0;0;0;9;0;690;0;0;0;0
28.12.17;17:25:00;1;597;9322;0;2;0;1152;0;0;0;0;3;0;1256;0;0;0;0;4;0;289;0;0;0;0;5;0;1858;2;0;0;0;0;0;6;0;1479;2;0;0;0;0;0;7;0;291;0;0;0;0;8;0;1617;0;0;0;0;9;0;690;0;0;0;0
28.12.17;17:20:00;1;974;9273;0;2;0;1152;0;0;0;0;3;0;1256;0;0;0;0;4;0;289;0;0;0;0;5;0;1858;2;0;0;0;0;0;6;0;1479;2;0;0;0;0;0;7;0;291;0;0;0;0;8;0;1617;0;0;0;0;9;0;690;0;0;0;0
28.12.17;17:15:00;1;558;9195;0;2;0;1152;0;0;0;0;3;0;1256;0;0;0;0;4;0;289;0;0;0;0;5;0;1858;2;0;0;0;0;0;6;0;1479;2;0;0;0;0;0;7;0;291;0;0;0;0;8;0;1617;0;0;0;0;9;0;690;0;0;0;0
28.12.17;17:10:00;1;626;9146;0;2;0;1152;0;0;0;0;3;0;1256;0;0;0;0;4;0;289;0;0;0;0;5;0;1858;2;0;0;0;0;0;6;0;1479;2;0;0;0;0;0;7;0;291;0;0;0;0;8;0;1617;0;0;0;0;9;0;690;0;0;0;0
28.12.17;17:05:00;1;653;9097;0;2;0;1152;0;0;0;0;3;0;1256;0;0;0;0;4;0;289;0;0;0;0;5;0;1858;2;0;0;0;0;0;6;0;1479;2;0;0;0;0;0;7;0;291;0;0;0;0;8;0;1617;0;0;0;0;9;0;690;0;0;0;0
28.12.17;17:00:00;1;653;9014;0;2;0;1152;0;0;0;0;3;0;1256;0;0;0;0;4;0;289;0;0;0;0;5;0;1858;2;0;0;0;0;0;6;0;1479;2;0;0;0;0;0;7;0;291;0;0;0;0;8;0;1617;0;0;0;0;9;0;690;0;0;0;0
28.12.17;16:55:00;1;609;8962;0;2;0;1152;0;0;0;0;3;0;1256;0;0;0;0;4;0;289;0;0;0;0;5;0;1858;2;0;0;0;0;0;6;0;1479;2;0;0;0;0;0;7;0;291;0;0;0;0;8;0;1617;0;0;0;0;9;0;690;0;0;0;0
28.12.17;16:50:00;1;845;8911;0;2;0;1152;0;0;0;0;3;0;1256;0;0;0;0;4;0;289;0;0;0;0;5;0;1858;2;0;0;0;0;0;6;0;1479;2;0;0;0;0;0;7;0;291;0;0;0;0;8;0;1617;0;0;0;0;9;0;690;0;0;0;0
28.12.17;16:45:00;1;2990;8821;0;2;0;1152;0;0;0;0;3;0;1256;0;0;0;0;4;0;289;0;0;0;0;5;0;1858;2;0;0;0;0;0;6;0;1479;2;0;0;0;0;0;7;0;291;0;0;0;0;8;0;1617;0;0;0;0;9;0;690;0;0;0;0
28.12.17;16:40:00;1;2396;8598;0;2;0;1152;0;0;111;3;3;0;1256;0;0;238;10;4;0;289;0;0;0;0;5;0;1858;2;0;0;0;0;0;6;0;1479;2;0;0;0;0;0;7;0;291;0;0;0;0;8;0;1617;0;0;0;0;9;0;690;0;0;0;0
28.12.17;16:35:00;1;2446;8399;0;2;0;1152;6;0;294;8;3;0;1256;6;0;333;12;4;0;289;0;0;33;2;5;0;1858;2;0;0;0;0;0;6;0;1479;2;0;0;0;0;0;7;0;291;0;0;0;0;8;0;1617;0;0;0;0;9;0;690;0;0;0;0
28.12.17;16:30:00;1;3037;8188;0;2;0;1152;6;0;333;8;3;0;1256;6;0;392;12;4;0;289;2;0;91;4;5;0;1858;2;0;4;111;110;8;6;0;1479;2;4;2;104;203;12;7;0;291;0;0;0;0;8;0;1617;0;0;41;1;9;0;690;0;0;86;2
28.12.17;16:25:00;1;2181;7950;0;2;0;1152;6;0;360;9;3;0;1256;6;2;415;12;4;0;289;1;0;119;4;5;0;1858;26;0;1;350;381;18;6;0;1479;23;5;3;180;497;17;7;0;291;0;0;153;5;8;0;1617;6;0;279;10;9;0;690;6;0;297;7
28.12.17;16:20:00;1;1350;7749;0;2;0;1152;6;0;381;9;3;0;1256;6;1;459;12;4;0;289;1;0;149;5;5;0;1858;23;0;2;402;403;18;6;0;1479;23;5;4;181;545;17;7;0;291;6;0;299;9;8;0;1617;6;0;339;10;9;0;690;6;0;355;7
28.12.17;16:15:00;1;999;7631;0;2;0;1152;6;0;396;9;3;0;1256;6;3;478;12;4;0;289;1;0;175;5;5;0;1858;26;0;5;421;515;18;6;0;1479;23;6;4;182;568;18;7;0;291;6;0;348;9;8;0;1617;6;0;391;10;9;0;690;6;0;400;7
28.12.17;16:10:00;1;604;7548;0;2;0;1152;6;0;410;9;3;0;1256;6;3;497;12;4;0;289;1;0;201;5;5;7;1858;1;1;6;422;668;18;6;0;1479;23;3;3;254;588;18;7;0;291;6;0;399;9;8;0;1617;6;1;426;10;9;0;690;6;1;440;7
28.12.17;16:05:00;1;2727;7516;0;2;0;1152;6;0;421;9;3;0;1256;6;0;538;12;4;0;289;1;0;221;5;5;18;1857;1;3;10;425;677;19;6;0;1479;23;3;5;533;600;19;7;0;291;6;0;421;9;8;0;1617;6;2;453;10;9;0;690;6;0;521;7
28.12.17;16:00:00;1;202;7278;0;2;6;1152;3;14;405;9;3;2;1256;4;10;497;12;4;0;289;3;0;218;5;5;47;1857;1;11;15;402;643;19;6;54;1479;4;21;35;463;441;20;7;0;291;6;0;438;9;8;2;1617;6;3;470;10;9;2;690;4;5;492;7
28.12.17;15:55:00;1;536;7260;0;2;5;1152;6;10;415;9;3;1;1255;3;7;522;12;4;0;289;3;0;226;6;5;71;1852;4;18;24;380;604;20;6;59;1474;4;16;25;464;441;20;7;1;291;6;2;441;10;8;3;1617;3;10;445;10;9;1;690;6;3;518;7
28.12.17;15:50:00;1;194;7214;0;2;4;1151;6;9;419;9;3;1;1255;6;6;513;12;4;0;289;3;0;219;6;5;74;1847;4;21;27;380;604;20;6;64;1469;4;19;31;463;441;20;7;0;291;6;0;467;10;8;1;1616;6;5;480;10;9;0;690;6;6;501;7
28.12.17;15:45:00;1;195;7198;0;2;6;1151;6;11;420;9;3;2;1255;6;8;530;12;4;0;289;3;0;215;6;5;86;1840;4;23;28;380;604;20;6;69;1463;4;20;31;463;441;20;7;2;291;3;4;428;10;8;1;1616;6;9;481;11;9;0;690;6;4;529;7
28.12.17;15:40:00;1;431;7182;0;2;12;1150;6;19;410;9;3;2;1255;6;8;538;12;4;0;289;3;0;213;6;5;89;1833;4;28;34;380;604;20;6;78;1457;4;35;52;463;441;20;7;1;291;6;1;462;10;8;3;1616;6;7;487;11;9;0;690;6;4;539;7
28.12.17;15:35:00;1;483;7141;0;2;38;1150;6;60;378;10;3;0;1255;6;0;566;12;4;0;289;3;0;199;6;5;99;1825;4;33;37;380;604;20;6;86;1451;4;23;33;464;441;20;7;1;291;6;2;463;10;8;7;1616;6;10;490;11;9;0;690;6;0;568;7
28.12.17;15:30:00;1;194;7119;0;2;60;1147;4;88;369;10;3;9;1255;4;20;516;12;4;0;289;3;0;217;6;5;117;1817;4;46;40;380;604;20;6;97;1444;4;31;44;464;441;20;7;1;290;6;7;455;10;8;35;1615;6;60;391;11;9;5;690;4;12;522;7
28.12.17;15:25:00;1;193;7103;0;2;78;1142;4;103;363;10;3;15;1254;3;28;521;12;4;0;289;3;0;210;6;5;129;1807;4;54;49;380;604;20;6;117;1435;4;56;80;464;441;20;7;2;290;6;5;485;10;8;49;1613;4;86;433;11;9;11;689;3;19;525;7
28.12.17;15:20:00;1;500;7086;0;2;74;1135;4;102;387;10;3;7;1252;6;12;555;12;4;0;289;3;0;237;6;5;134;1796;4;58;53;380;604;20;6;116;1426;4;41;60;463;441;20;7;1;290;6;4;491;10;8;66;1608;4;91;382;11;9;4;688;6;8;561;7
28.12.17;15:15:00;1;238;7036;0;2;69;1129;4;95;382;10;3;8;1252;6;14;546;12;4;1;289;3;1;222;6;5;128;1785;4;53;46;380;604;20;6;107;1416;4;44;64;463;441;20;7;2;290;4;5;479;10;8;57;1603;4;78;357;11;9;4;688;6;8;553;7
28.12.17;15:10:00;1;231;7016;0;2;72;1123;4;97;354;10;3;5;1251;6;11;552;12;4;0;288;3;0;218;6;5;123;1775;4;53;49;380;604;20;6;110;1407;4;53;75;463;441;20;7;3;290;6;8;462;10;8;55;1598;4;75;359;11;9;3;688;6;7;557;7
28.12.17;15:05:00;1;193;6997;0;2;70;1117;4;95;374;10;3;7;1251;6;13;547;12;4;1;288;3;1;222;6;5;126;1764;4;53;45;380;604;20;6;105;1398;4;49;69;464;441;20;7;1;289;6;5;482;10;8;61;1593;4;77;359;11;9;5;687;6;8;553;7
28.12.17;15:00:00;1;906;6981;0;2;68;1111;4;95;371;10;3;0;1250;6;0;565;12;4;0;288;3;0;237;6;5;123;1754;4;53;46;380;605;20;6;105;1389;4;44;63;464;441;20;7;2;289;6;3;471;10;8;52;1588;4;79;362;11;9;4;687;4;7;551;7
28.12.17;14:55:00;1;193;6933;0;2;61;1106;4;90;376;10;3;14;1250;3;28;514;12;4;0;288;3;0;218;6;5;112;1744;4;45;46;380;604;20;6;95;1380;4;35;50;464;441;20;7;3;289;6;2;477;10;8;45;1584;4;67;359;11;9;9;686;3;17;519;7
28.12.17;14:50:00;1;193;6917;0;2;73;1101;4;99;363;10;3;6;1249;6;12;553;12;4;0;288;3;0;225;6;5;128;1734;4;56;46;380;604;20;6;104;1372;4;48;70;464;441;20;7;1;289;6;3;487;10;8;54;1580;4;76;359;12;9;4;685;6;7;558;7
28.12.17;14:45:00;1;192;6901;0;2;67;1094;4;93;371;10;3;14;1248;6;27;513;12;4;0;288;3;0;221;6;5;115;1724;4;49;47;380;604;20;6;100;1363;4;41;58;463;441;20;7;1;289;4;5;476;10;8;45;1575;4;74;358;12;9;4;685;6;8;547;7
28.12.17;14:40:00;1;435;6876;0;2;74;1089;4;101;354;10;3;7;1247;6;12;553;12;4;0;288;3;0;228;6;5;125;1714;4;52;50;380;604;20;6;104;1355;4;42;58;463;441;20;7;1;289;3;8;446;10;8;49;1571;4;85;409;12;9;3;685;6;7;558;7
28.12.17;14:35:00;1;244;6838;0;2;84;1082;4;109;353;10;3;9;1247;6;14;551;12;4;0;288;3;0;246;6;5;128;1703;4;57;54;380;604;20;6;112;1346;4;52;74;463;441;20;7;1;289;6;5;486;10;8;49;1567;4;91;439;12;9;4;685;6;9;557;7
28.12.17;14:30:00;1;258;6818;0;2;91;1076;4;116;355;10;3;0;1246;6;0;582;12;4;0;288;3;0;229;6;5;142;1692;4;61;56;380;604;20;6;114;1336;4;41;60;464;441;20;7;1;288;6;4;496;10;8;70;1563;4;101;437;12;9;0;684;6;0;590;7
28.12.17;14:25:00;1;583;6796;0;2;103;1068;4;128;354;10;3;59;1246;4;93;474;13;4;1;288;3;1;212;7;5;149;1681;4;65;59;380;604;20;6;128;1326;4;50;75;464;441;20;7;1;288;6;7;491;10;8;80;1557;4;114;413;12;9;14;684;3;24;530;8
28.12.17;14:20:00;1;300;6740;0;2;104;1059;4;129;354;10;3;60;1241;4;93;463;13;4;5;288;3;5;200;6;5;149;1668;4;66;59;380;604;20;6;127;1316;4;54;79;464;441;20;7;3;288;6;5;499;10;8;83;1551;4;112;436;12;9;6;683;6;10;568;8
28.12.17;14:15:00;1;294;6715;0;2;101;1051;4;125;358;10;3;11;1236;4;19;559;12;4;1;288;3;1;237;6;5;148;1656;4;63;58;380;604;20;6;121;1305;4;47;67;464;441;20;7;1;288;6;8;488;10;8;74;1544;4;110;444;12;9;17;682;6;25;528;8
28.12.17;14:10:00;1;258;6690;0;2;90;1042;4;116;362;10;3;17;1235;3;27;534;12;4;1;288;3;2;200;6;5;134;1644;4;60;53;380;604;20;6;116;1295;4;41;60;463;441;20;7;1;288;3;9;474;10;8;67;1538;4;99;420;12;9;7;681;6;9;564;8
28.12.17;14:05:00;1;517;6668;0;2;82;1035;4;109;356;10;3;9;1233;6;14;551;13;4;0;287;1;0;235;7;5;131;1632;4;58;53;380;605;20;6;107;1285;4;52;72;464;441;20;7;0;288;6;5;485;11;8;63;1532;4;91;384;12;9;4;680;6;10;557;8
28.12.17;14:00:00;1;193;6619;0;2;74;1028;4;102;380;10;3;6;1232;6;12;553;13;4;0;287;3;0;238;7;5;132;1621;4;59;51;380;604;20;6;101;1276;4;33;44;464;441;20;7;0;288;6;3;490;11;8;64;1527;4;87;370;12;9;0;680;6;0;585;8
28.12.17;13:55:00;1;193;6603;0;2;58;1022;4;85;376;10;3;5;1232;6;12;543;13;4;0;287;3;0;231;7;5;120;1610;4;53;42;380;605;20;6;92;1268;4;48;65;464;441;20;7;3;288;6;8;450;11;8;44;1521;4;75;360;12;9;10;680;3;17;514;8
28.12.17;13:50:00;1;192;6587;0;2;66;1017;4;93;370;10;3;10;1231;6;22;522;13;4;0;287;3;0;208;7;5;125;1600;4;56;51;380;604;20;6;95;1260;4;31;42;463;441;20;7;0;287;6;4;484;11;8;53;1518;4;77;360;12;9;4;679;6;7;555;8
28.12.17;13:45:00;1;478;6571;0;2;66;1011;4;92;373;10;3;0;1231;6;0;574;13;4;0;287;3;0;233;7;5;126;1590;4;57;46;380;604;20;6;96;1252;4;42;56;464;441;20;7;0;287;6;0;506;11;8;51;1513;4;75;360;12;9;6;679;6;8;551;8
28.12.17;13:40:00;1;193;6524;0;2;64;1006;4;92;369;10;3;11;1231;4;22;524;13;4;0;287;3;0;237;7;5;124;1579;4;56;47;380;604;20;6;94;1244;4;46;62;464;441;20;7;2;287;3;8;466;11;8;55;1509;4;86;418;12;9;9;678;6;17;530;8
28.12.17;13:35:00;1;193;6508;0;2;76;1000;4;102;360;10;3;8;1229;6;14;547;13;4;0;287;3;0;234;7;5;132;1569;4;59;53;380;604;20;6;101;1236;4;40;53;464;441;20;7;3;287;6;10;454;11;8;51;1504;4;89;432;12;9;6;677;6;9;554;8
28.12.17;13:30:00;1;237;6492;0;2;81;994;4;108;355;10;3;16;1229;6;27;530;13;4;0;287;3;0;199;7;5;140;1557;4;61;53;380;604;20;6;106;1227;4;50;67;464;441;20;7;0;287;6;4;490;11;8;61;1500;4;88;440;12;9;3;677;6;8;560;8
28.12.17;13:25:00;1;2336;6472;0;2;96;987;4;122;358;10;3;37;1227;6;57;515;14;4;4;287;3;4;199;7;5;155;1546;4;71;66;380;604;20;6;116;1219;4;51;71;463;441;20;7;3;287;6;5;493;12;8;87;1495;4;117;432;12;9;8;677;4;10;559;9